| time (UTC) | temp F | wind direction | speed MPH | gust MPH | rain 1hr in | rain 24hr in | rain mn in | humidity % | barometer mb |
| 20260506234420 | 55 | 0 | 0.0 | 0.0 | 0.00 | 0.18 | 0.00 | 99 | 1010.2 |
| 20260506233310 | 56 | 360 | 0.0 | 2.0 | 0.00 | 0.18 | 0.00 | 99 | 1010.1 |
| 20260506232619 | 56 | 20 | 0.0 | 3.0 | 0.00 | 0.18 | 0.00 | 99 | 1010.1 |
| 20260506231722 | 56 | 13 | 2.0 | 4.0 | 0.00 | 0.18 | 0.00 | 99 | 1010.1 |
| 20260506230824 | 56 | 8 | 1.0 | 4.0 | 0.00 | 0.18 | 0.00 | 99 | 1010.1 |
| 20260506225922 | 56 | 2 | 1.0 | 3.0 | 0.00 | 0.18 | 0.00 | 99 | 1010.2 |
| 20260506225024 | 57 | 357 | 0.0 | 3.0 | 0.00 | 0.18 | 0.00 | 99 | 1010.0 |
| 20260506224121 | 56 | 0 | 0.0 | 0.0 | 0.00 | 0.18 | 0.00 | 98 | 1010.1 |
| 20260506223010 | 57 | 0 | 0.0 | 0.0 | 0.00 | 0.18 | 0.00 | 98 | 1010.2 |
| 20260506222321 | 57 | 0 | 0.0 | 0.0 | 0.00 | 0.18 | 0.00 | 98 | 1010.3 |
| 20260506221211 | 57 | 14 | 0.0 | 4.0 | 0.00 | 0.18 | 0.00 | 98 | 1010.1 |
| 20260506220310 | 57 | 16 | 1.0 | 4.0 | 0.00 | 0.18 | 0.00 | 97 | 1010.0 |
| 20260506215623 | 57 | 360 | 1.0 | 4.0 | 0.00 | 0.18 | 0.18 | 98 | 1010.1 |
| 20260506214720 | 57 | 9 | 0.0 | 3.0 | 0.00 | 0.18 | 0.18 | 97 | 1010.1 |
| 20260506213610 | 57 | 358 | 1.0 | 3.0 | 0.00 | 0.18 | 0.18 | 97 | 1010.0 |
| 20260506212920 | 57 | 2 | 0.0 | 4.0 | 0.00 | 0.18 | 0.18 | 97 | 1010.1 |
| 20260506211810 | 58 | 349 | 0.0 | 2.0 | 0.00 | 0.18 | 0.18 | 96 | 1010.1 |
| 20260506211120 | 58 | 45 | 0.0 | 2.0 | 0.00 | 0.18 | 0.18 | 96 | 1010.1 |
| 20260506210222 | 58 | 19 | 0.0 | 4.0 | 0.00 | 0.18 | 0.18 | 96 | 1010.0 |
| 20260506205110 | 58 | 19 | 0.0 | 2.0 | 0.00 | 0.18 | 0.18 | 96 | 1009.8 |
| 20260506204422 | 58 | 30 | 0.0 | 2.0 | 0.00 | 0.18 | 0.18 | 96 | 1010.1 |
| 20260506203310 | 58 | 22 | 1.0 | 3.0 | 0.00 | 0.18 | 0.18 | 95 | 1010.0 |
| 20260506202622 | 58 | 25 | 0.0 | 3.0 | 0.00 | 0.18 | 0.18 | 95 | 1009.9 |
| 20260506201510 | 58 | 20 | 0.0 | 3.0 | 0.00 | 0.18 | 0.18 | 95 | 1009.9 |
| 20260506200610 | 59 | 43 | 0.0 | 2.0 | 0.00 | 0.18 | 0.18 | 95 | 1009.8 |
| 20260506195923 | 59 | 315 | 0.0 | 1.0 | 0.00 | 0.18 | 0.18 | 95 | 1009.8 |
| 20260506194810 | 59 | 0 | 0.0 | 0.0 | 0.00 | 0.18 | 0.18 | 95 | 1009.7 |
| 20260506193910 | 59 | 0 | 0.0 | 0.0 | 0.00 | 0.18 | 0.18 | 94 | 1009.5 |
| 20260506193220 | 59 | 33 | 0.0 | 3.0 | 0.00 | 0.18 | 0.18 | 94 | 1009.5 |
| 20260506192323 | 59 | 13 | 1.0 | 4.0 | 0.00 | 0.18 | 0.18 | 94 | 1009.4 |
| 20260506191210 | 59 | 39 | 2.0 | 4.0 | 0.00 | 0.18 | 0.18 | 94 | 1009.4 |
| 20260506190524 | 59 | 27 | 2.0 | 4.0 | 0.00 | 0.18 | 0.18 | 94 | 1009.3 |
| 20260506185410 | 60 | 9 | 1.0 | 4.0 | 0.00 | 0.18 | 0.18 | 94 | 1009.3 |
| 20260506184722 | 60 | 14 | 0.0 | 4.0 | 0.00 | 0.18 | 0.18 | 94 | 1009.3 |
| 20260506183819 | 60 | 7 | 1.0 | 4.0 | 0.00 | 0.18 | 0.18 | 94 | 1009.1 |
| 20260506182922 | 60 | 2 | 2.0 | 5.0 | 0.00 | 0.18 | 0.18 | 94 | 1009.1 |
| 20260506181811 | 60 | 7 | 1.0 | 4.0 | 0.00 | 0.18 | 0.18 | 94 | 1008.8 |
| 20260506181122 | 60 | 15 | 1.0 | 4.0 | 0.00 | 0.18 | 0.18 | 93 | 1009.1 |
| 20260506180224 | 60 | 4 | 1.0 | 4.0 | 0.00 | 0.18 | 0.18 | 93 | 1008.9 |
| 20260506175321 | 61 | 347 | 0.0 | 3.0 | 0.00 | 0.18 | 0.18 | 93 | 1008.7 |
| 20260506174210 | 61 | 0 | 0.0 | 0.0 | 0.00 | 0.18 | 0.18 | 93 | 1008.7 |
| 20260506173521 | 61 | 0 | 0.0 | 0.0 | 0.00 | 0.18 | 0.18 | 93 | 1008.7 |
| 20260506172411 | 61 | 360 | 0.0 | 1.0 | 0.00 | 0.18 | 0.18 | 92 | 1008.8 |
| 20260506171721 | 61 | 0 | 0.0 | 0.0 | 0.00 | 0.18 | 0.18 | 92 | 1008.6 |
| 20260506170611 | 61 | 97 | 0.0 | 3.0 | 0.00 | 0.18 | 0.18 | 92 | 1008.7 |
| 20260506165710 | 61 | 110 | 0.0 | 4.0 | 0.00 | 0.18 | 0.18 | 92 | 1008.6 |
| 20260506164810 | 61 | 85 | 0.0 | 4.0 | 0.00 | 0.19 | 0.18 | 92 | 1008.6 |
| 20260506163910 | 61 | 101 | 0.0 | 3.0 | 0.00 | 0.19 | 0.18 | 93 | 1008.7 |
| 20260506163222 | 61 | 120 | 0.0 | 3.0 | 0.00 | 0.19 | 0.18 | 93 | 1008.8 |
| 20260506162110 | 61 | 175 | 0.0 | 4.0 | 0.00 | 0.19 | 0.18 | 94 | 1008.9 |
| 20260506161422 | 61 | 0 | 0.0 | 0.0 | 0.00 | 0.19 | 0.18 | 95 | 1008.8 |
| 20260506160310 | 61 | 0 | 0.0 | 0.0 | 0.00 | 0.19 | 0.18 | 95 | 1008.8 |
| 20260506155410 | 60 | 161 | 0.0 | 4.0 | 0.00 | 0.19 | 0.18 | 95 | 1008.7 |
| 20260506154510 | 61 | 208 | 0.0 | 4.0 | 0.00 | 0.19 | 0.18 | 96 | 1008.6 |
| 20260506153821 | 61 | 135 | 0.0 | 2.0 | 0.00 | 0.19 | 0.18 | 96 | 1008.5 |
| 20260506152924 | 60 | 98 | 1.0 | 8.0 | 0.00 | 0.20 | 0.18 | 96 | 1008.6 |
| 20260506152021 | 60 | 96 | 0.0 | 4.0 | 0.00 | 0.21 | 0.18 | 96 | 1008.6 |
| 20260506150910 | 61 | 20 | 1.0 | 3.0 | 0.02 | 0.21 | 0.18 | 96 | 1008.7 |
| 20260506150221 | 61 | 40 | 1.0 | 4.0 | 0.05 | 0.21 | 0.18 | 96 | 1008.7 |
| 20260506145110 | 60 | 31 | 0.0 | 4.0 | 0.07 | 0.21 | 0.18 | 96 | 1008.7 |
| 20260506144210 | 60 | 71 | 0.0 | 4.0 | 0.11 | 0.22 | 0.18 | 95 | 1008.7 |
| 20260506143523 | 60 | 83 | 1.0 | 6.0 | 0.13 | 0.22 | 0.18 | 95 | 1008.6 |
| 20260506142620 | 60 | 88 | 1.0 | 4.0 | 0.15 | 0.22 | 0.18 | 94 | 1008.7 |
| 20260506141510 | 60 | 95 | 1.0 | 5.0 | 0.14 | 0.22 | 0.17 | 92 | 1008.9 |
| 20260506140820 | 61 | 112 | 1.0 | 3.0 | 0.11 | 0.19 | 0.13 | 90 | 1009.1 |
| 20260506135922 | 61 | 124 | 0.0 | 3.0 | 0.11 | 0.19 | 0.13 | 90 | 1009.2 |
| 20260506135019 | 61 | 135 | 0.0 | 2.0 | 0.07 | 0.15 | 0.09 | 88 | 1009.4 |
| 20260506133910 | 62 | 138 | 0.0 | 6.0 | 0.04 | 0.12 | 0.06 | 86 | 1009.4 |
| 20260506133224 | 62 | 149 | 0.0 | 4.0 | 0.01 | 0.09 | 0.04 | 85 | 1009.3 |
| 20260506132322 | 62 | 135 | 1.0 | 6.0 | 0.00 | 0.08 | 0.02 | 83 | 1009.3 |
| 20260506131424 | 63 | 125 | 1.0 | 6.0 | 0.00 | 0.08 | 0.02 | 83 | 1009.4 |
| 20260506130310 | 63 | 152 | 1.0 | 5.0 | 0.00 | 0.08 | 0.02 | 83 | 1009.5 |
| 20260506125410 | 63 | 151 | 2.0 | 12.0 | 0.00 | 0.08 | 0.02 | 82 | 1009.4 |
| 20260506124721 | 63 | 143 | 1.0 | 12.0 | 0.00 | 0.09 | 0.02 | 82 | 1009.5 |
| 20260506123610 | 64 | 153 | 2.0 | 8.0 | 0.00 | 0.11 | 0.02 | 83 | 1009.5 |
| 20260506122921 | 64 | 135 | 2.0 | 7.0 | 0.00 | 0.12 | 0.02 | 86 | 1009.5 |
| 20260506122023 | 63 | 133 | 1.0 | 6.0 | 0.00 | 0.12 | 0.02 | 89 | 1009.5 |
| 20260506120910 | 62 | 180 | 0.0 | 6.0 | 0.01 | 0.13 | 0.02 | 92 | 1009.7 |
| 20260506120223 | 61 | 168 | 1.0 | 4.0 | 0.01 | 0.13 | 0.02 | 91 | 1009.7 |
| 20260506115110 | 62 | 110 | 0.0 | 4.0 | 0.01 | 0.13 | 0.02 | 92 | 1009.9 |
| 20260506114210 | 62 | 96 | 0.0 | 4.0 | 0.01 | 0.13 | 0.02 | 92 | 1009.8 |
| 20260506113520 | 61 | 147 | 0.0 | 2.0 | 0.01 | 0.14 | 0.02 | 93 | 1009.9 |
| 20260506112622 | 61 | 180 | 0.0 | 1.0 | 0.01 | 0.15 | 0.02 | 92 | 1010.0 |
| 20260506111510 | 60 | 225 | 0.0 | 2.0 | 0.01 | 0.17 | 0.02 | 92 | 1010.1 |
| 20260506110610 | 60 | 225 | 0.0 | 3.0 | 0.00 | 0.17 | 0.01 | 91 | 1010.3 |
| 20260506105710 | 60 | 218 | 0.0 | 5.0 | 0.00 | 0.17 | 0.01 | 90 | 1010.3 |
| 20260506105021 | 60 | 192 | 1.0 | 5.0 | 0.01 | 0.17 | 0.01 | 89 | 1010.4 |
| 20260506103910 | 60 | 163 | 0.0 | 3.0 | 0.01 | 0.17 | 0.01 | 89 | 1010.4 |
| 20260506103221 | 60 | 159 | 0.0 | 4.0 | 0.01 | 0.17 | 0.01 | 89 | 1010.4 |
| 20260506102323 | 60 | 152 | 1.0 | 8.0 | 0.01 | 0.17 | 0.01 | 89 | 1010.4 |
| 20260506101421 | 60 | 157 | 2.0 | 7.0 | 0.01 | 0.17 | 0.01 | 90 | 1010.5 |
| 20260506100523 | 61 | 156 | 1.0 | 7.0 | 0.01 | 0.17 | 0.01 | 91 | 1010.5 |
| 20260506095410 | 61 | 165 | 1.0 | 7.0 | 0.00 | 0.15 | 0.00 | 91 | 1010.5 |
| 20260506094723 | 61 | 161 | 1.0 | 7.0 | 0.00 | 0.17 | 0.00 | 91 | 1010.4 |
| 20260506093820 | 62 | 153 | 1.0 | 4.0 | 0.00 | 0.17 | 0.00 | 91 | 1010.5 |
| 20260506092923 | 62 | 156 | 0.0 | 4.0 | 0.00 | 0.17 | 0.00 | 91 | 1010.4 |
| 20260506091810 | 62 | 163 | 0.0 | 5.0 | 0.00 | 0.17 | 0.00 | 91 | 1010.4 |
| 20260506090910 | 62 | 90 | 1.0 | 2.0 | 0.00 | 0.17 | 0.00 | 93 | 1010.3 |
| 20260506090010 | 62 | 90 | 0.0 | 2.0 | 0.00 | 0.17 | 0.00 | 95 | 1010.1 |
| 20260506085322 | 62 | 172 | 0.0 | 4.0 | 0.00 | 0.17 | 0.00 | 96 | 1010.0 |
| 20260506084424 | 62 | 108 | 0.0 | 4.0 | 0.00 | 0.17 | 0.00 | 98 | 1010.0 |
| 20260506083522 | 62 | 111 | 0.0 | 4.0 | 0.00 | 0.17 | 0.00 | 99 | 1010.0 |
| 20260506082624 | 61 | 84 | 0.0 | 4.0 | 0.00 | 0.17 | 0.00 | 99 | 1010.0 |
| 20260506081721 | 60 | 110 | 0.0 | 4.0 | 0.00 | 0.17 | 0.00 | 99 | 1009.9 |
| 20260506080824 | 60 | 0 | 0.0 | 0.0 | 0.00 | 0.17 | 0.00 | 99 | 1009.9 |
| 20260506073010 | 59 | 19 | 0.0 | 3.0 | 0.00 | 0.17 | 0.00 | 99 | 1010.0 |
| 20260506072320 | 58 | 27 | 0.0 | 4.0 | 0.00 | 0.17 | 0.00 | 99 | 1010.1 |
| 20260506071210 | 58 | 32 | 0.0 | 4.0 | 0.00 | 0.17 | 0.00 | 99 | 1010.0 |
| 20260506070310 | 58 | 74 | 0.0 | 3.0 | 0.00 | 0.17 | 0.00 | 99 | 1010.2 |
| 20260506061810 | 57 | 90 | 0.0 | 1.0 | 0.00 | 0.17 | 0.00 | 99 | 1010.2 |
| 20260506060910 | 56 | 45 | 0.0 | 2.0 | 0.00 | 0.17 | 0.00 | 99 | 1010.1 |
| 20260506060221 | 56 | 28 | 0.0 | 4.0 | 0.00 | 0.17 | 0.00 | 99 | 1009.8 |
| 20260506050610 | 55 | 80 | 1.0 | 4.0 | 0.00 | 0.17 | 0.00 | 99 | 1010.4 |
| 20260506045020 | 55 | 17 | 1.0 | 6.0 | 0.00 | 0.17 | 0.00 | 99 | 1010.3 |
| 20260506044122 | 55 | 49 | 2.0 | 8.0 | 0.00 | 0.17 | 0.00 | 99 | 1010.3 |
| 20260506043220 | 54 | 15 | 1.0 | 7.0 | 0.00 | 0.17 | 0.00 | 99 | 1010.2 |
| 20260506042110 | 54 | 39 | 1.0 | 5.0 | 0.00 | 0.17 | 0.00 | 99 | 1010.0 |
| 20260506041210 | 54 | 17 | 1.0 | 5.0 | 0.00 | 0.17 | 0.00 | 99 | 1010.0 |
| 20260506040310 | 54 | 20 | 1.0 | 4.0 | 0.00 | 0.17 | 0.00 | 99 | 1010.0 |
| 20260506035624 | 54 | 7 | 1.0 | 5.0 | 0.00 | 0.17 | 0.00 | 99 | 1010.1 |
| 20260506034510 | 54 | 33 | 1.0 | 4.0 | 0.00 | 0.17 | 0.00 | 99 | 1010.3 |
| 20260506033610 | 54 | 18 | 1.0 | 4.0 | 0.00 | 0.17 | 0.00 | 99 | 1010.4 |
| 20260506032710 | 54 | 13 | 3.0 | 8.0 | 0.00 | 0.17 | 0.00 | 99 | 1010.4 |
| 20260506031810 | 54 | 10 | 1.0 | 6.0 | 0.00 | 0.17 | 0.00 | 99 | 1010.4 |
| 20260506031121 | 53 | 36 | 1.0 | 4.0 | 0.00 | 0.17 | 0.00 | 99 | 1010.5 |
| 20260506030223 | 53 | 18 | 2.0 | 5.0 | 0.00 | 0.17 | 0.00 | 99 | 1010.6 |
| 20260506025321 | 53 | 21 | 1.0 | 4.0 | 0.00 | 0.17 | 0.00 | 99 | 1010.6 |
| 20260506024423 | 53 | 3 | 1.0 | 5.0 | 0.00 | 0.17 | 0.00 | 99 | 1010.7 |
| 20260506023520 | 53 | 11 | 2.0 | 5.0 | 0.00 | 0.17 | 0.00 | 99 | 1010.7 |
| 20260506022623 | 53 | 9 | 1.0 | 4.0 | 0.00 | 0.17 | 0.00 | 99 | 1010.7 |
| 20260506021511 | 53 | 6 | 0.0 | 4.0 | 0.00 | 0.17 | 0.00 | 99 | 1011.0 |
| 20260506020822 | 54 | 0 | 0.0 | 0.0 | 0.00 | 0.17 | 0.00 | 99 | 1011.1 |
| 20260506015920 | 54 | 0 | 0.0 | 0.0 | 0.00 | 0.17 | 0.00 | 99 | 1011.1 |
| 20260506014810 | 54 | 0 | 0.0 | 0.0 | 0.00 | 0.17 | 0.00 | 99 | 1011.1 |
| 20260506013910 | 54 | 0 | 0.0 | 0.0 | 0.00 | 0.17 | 0.00 | 99 | 1011.1 |
| 20260506013010 | 55 | 335 | 0.0 | 2.0 | 0.00 | 0.17 | 0.00 | 99 | 1011.1 |
| 20260506012324 | 55 | 0 | 0.0 | 0.0 | 0.00 | 0.17 | 0.00 | 99 | 1011.2 |
| 20260506011210 | 55 | 0 | 0.0 | 0.0 | 0.00 | 0.17 | 0.00 | 99 | 1011.2 |
| 20260506010524 | 55 | 0 | 0.0 | 0.0 | 0.00 | 0.17 | 0.00 | 99 | 1011.2 |
| 20260506005621 | 55 | 45 | 0.0 | 2.0 | 0.00 | 0.17 | 0.00 | 99 | 1011.2 |
| 20260506004723 | 55 | 0 | 0.0 | 0.0 | 0.00 | 0.17 | 0.00 | 99 | 1011.4 |
| 20260506003821 | 55 | 9 | 0.0 | 4.0 | 0.00 | 0.17 | 0.00 | 99 | 1011.4 |
| 20260506002710 | 55 | 80 | 0.0 | 4.0 | 0.00 | 0.17 | 0.00 | 99 | 1011.4 |
| 20260506002020 | 55 | 8 | 1.0 | 6.0 | 0.00 | 0.17 | 0.00 | 99 | 1011.2 |
| 20260506000910 | 55 | 7 | 3.0 | 6.0 | 0.00 | 0.17 | 0.00 | 99 | 1011.2 |
| 20260506000010 | 55 | 11 | 3.0 | 8.0 | 0.00 | 0.17 | 0.00 | 99 | 1011.3 |